Hourly Data Report for October 14, 2015

All times are specified in Local Standard Time (LST). Add 1 hour to adjust for Daylight Saving Time where and when it is observed.

HALL BEACH A
NUNAVUT

68°46'33.000" N
81°14'33.000" W
9.10 m
2402354
71293
YUX

Download Data

Hourly Data (October 2015)
Hourly Data Report for October 14, 2015
Temp Definition
°C
Dew Point Temp Definition
°C
Rel Hum Definition
%
Wind Dir Definition
10's deg

Wind Spd Definition
km/h
Visibility Definition
km
Stn Press Definition
kPa
Hmdx Definition


Wind Chill Definition


Weather Definition


TIME
00:00 Legend Double Dagger -5.8 -6.6 94 31 30 4.8 99.43   -14 Snow
01:00 Legend Double Dagger -5.0 -5.7 95 32 30 6.4 99.43   -13 Snow
02:00 Legend Double Dagger -5.2 -6.0 94 31 32 16.1 99.42   -13 LegendNANA
03:00 Legend Double Dagger -5.4 -6.4 93 31 34 16.1 99.39   -14 Snow
04:00 Legend Double Dagger -5.1 -5.9 94 31 37 3.2 99.35   -14 Snow
05:00 Legend Double Dagger -4.8 -5.6 94 31 39 2.0 99.33   -14 Snow
06:00 Legend Double Dagger -2.6 -3.0 97 32 39 2.0 99.31   -11 Snow
07:00 Legend Double Dagger -1.6 -2.0 97 32 41 3.6 99.30   -10 Snow
08:00 Legend Double Dagger -1.1 -1.5 97 34 37 4.8 99.32   -9 Snow
09:00 Legend Double Dagger -1.6 -2.2 96 34 39 6.4 99.34   -9 Snow
10:00 Legend Double Dagger -0.6 -1.5 94 35 46 4.8 99.34   -9 Fog
11:00 Legend Double Dagger -0.6 -1.6 93 34 37 16.1 99.39   -8 LegendNANA
12:00 Legend Double Dagger -0.8 -1.5 95 33 39 9.7 99.40   -8 Fog
13:00 Legend Double Dagger -0.5 -1.4 94 33 34 11.3 99.41   -8 Snow
14:00 Legend Double Dagger -0.8 -1.7 94 34 32 11.3 99.40   -8 Snow
15:00 Legend Double Dagger -1.1 -1.9 94 33 35 16.1 99.41   -8 LegendNANA
16:00 Legend Double Dagger -1.6 -2.4 94 33 39 16.1 99.43   -9 LegendNANA
17:00 Legend Double Dagger -2.4 -3.2 94 33 45 8.1 99.45   -11 Fog
18:00 Legend Double Dagger -3.5 -4.5 93 32 41 11.3 99.47   -12 LegendNANA
19:00 Legend Double Dagger -3.6 -4.7 92 31 35 16.1 99.48   -12 LegendNANA
20:00 Legend Double Dagger -4.2 -5.3 92 31 39 9.7 99.46   -13 Snow
21:00 Legend Double Dagger -4.3 -5.4 92 32 43 8.1 99.39   -13 Snow
22:00 Legend Double Dagger -4.2 -5.0 94 32 43 2.0 99.38   -13 Snow
23:00 Legend Double Dagger -4.1 -5.1 93 32 45 3.2 99.37   -13 Snow

Notes on Data Quality.

Legend

  • E = Estimated
  • M = Missing
  • NA = Not Available
  • ‡ = Partner data that is not subject to review by the National Climate Archives
Date modified: